| time (UTC) | temp C | wind direction | speed KPH | gust KPH | rain 1hr cm | rain 24hr cm | rain mn cm | humidity % | barometer mb |
| 20260506231504 | 13 | 40 | 3.2 | 9.7 | 0.00 | 0.00 | 0.00 | 84 | 1020.8 |
| 20260506231047 | 13 | 40 | 1.6 | 6.4 | 0.00 | 0.00 | 0.00 | 85 | 1020.8 |
| 20260506230525 | 12 | 35 | 1.6 | 6.4 | 0.00 | 0.00 | 0.00 | 85 | 1020.8 |
| 20260506230004 | 12 | 35 | 3.2 | 6.4 | 0.00 | 0.00 | 0.00 | 85 | 1020.8 |
| 20260506225504 | 12 | 32 | 3.2 | 8.0 | 0.00 | 0.00 | 0.00 | 84 | 1020.8 |
| 20260506225004 | 12 | 25 | 3.2 | 8.0 | 0.00 | 0.00 | 0.00 | 85 | 1020.8 |
| 20260506224504 | 12 | 23 | 1.6 | 8.0 | 0.00 | 0.00 | 0.00 | 85 | 1020.8 |
| 20260506224004 | 12 | 32 | 3.2 | 8.0 | 0.00 | 0.00 | 0.00 | 85 | 1020.8 |
| 20260506223504 | 13 | 36 | 3.2 | 8.0 | 0.00 | 0.00 | 0.00 | 84 | 1021.0 |
| 20260506223004 | 13 | 37 | 3.2 | 8.0 | 0.00 | 0.00 | 0.00 | 84 | 1021.0 |
| 20260506222504 | 13 | 38 | 3.2 | 8.0 | 0.00 | 0.00 | 0.00 | 84 | 1020.9 |
| 20260506222004 | 13 | 34 | 3.2 | 8.0 | 0.00 | 0.00 | 0.00 | 84 | 1020.9 |
| 20260506221525 | 13 | 28 | 3.2 | 8.0 | 0.00 | 0.00 | 0.00 | 83 | 1021.0 |
| 20260506221004 | 13 | 21 | 3.2 | 8.0 | 0.00 | 0.00 | 0.00 | 83 | 1021.0 |
| 20260506220504 | 13 | 19 | 1.6 | 6.4 | 0.00 | 0.00 | 0.00 | 82 | 1021.0 |
| 20260506220005 | 13 | 19 | 1.6 | 6.4 | 0.00 | 0.00 | 0.00 | 81 | 1021.0 |
| 20260506215504 | 13 | 26 | 1.6 | 6.4 | 0.00 | 0.00 | 0.00 | 81 | 1021.0 |
| 20260506215005 | 13 | 43 | 3.2 | 6.4 | 0.00 | 0.00 | 0.00 | 80 | 1021.1 |
| 20260506214525 | 13 | 197 | 1.6 | 6.4 | 0.00 | 0.00 | 0.00 | 78 | 1021.0 |
| 20260506214004 | 13 | 201 | 1.6 | 4.8 | 0.00 | 0.00 | 0.00 | 77 | 1021.1 |
| 20260506213504 | 13 | 216 | 0.0 | 6.4 | 0.00 | 0.00 | 0.00 | 76 | 1021.1 |
| 20260506213025 | 13 | 152 | 1.6 | 6.4 | 0.00 | 0.00 | 0.00 | 75 | 1021.0 |
| 20260506212504 | 13 | 129 | 1.6 | 6.4 | 0.00 | 0.00 | 0.00 | 76 | 1021.1 |
| 20260506212004 | 13 | 122 | 1.6 | 6.4 | 0.00 | 0.00 | 0.00 | 76 | 1020.9 |
| 20260506211504 | 13 | 113 | 1.6 | 6.4 | 0.00 | 0.00 | 0.00 | 76 | 1021.0 |
| 20260506211004 | 13 | 113 | 1.6 | 4.8 | 0.00 | 0.00 | 0.00 | 76 | 1021.1 |
| 20260506210504 | 13 | 112 | 1.6 | 4.8 | 0.00 | 0.00 | 0.00 | 77 | 1021.1 |
| 20260506210004 | 13 | 111 | 1.6 | 4.8 | 0.00 | 0.00 | 0.00 | 77 | 1021.1 |
| 20260506205504 | 13 | 132 | 1.6 | 11.3 | 0.00 | 0.00 | 0.00 | 77 | 1021.1 |
| 20260506205004 | 13 | 166 | 1.6 | 11.3 | 0.00 | 0.00 | 0.00 | 77 | 1021.1 |
| 20260506204504 | 13 | 181 | 1.6 | 11.3 | 0.00 | 0.00 | 0.00 | 78 | 1021.1 |
| 20260506204005 | 13 | 145 | 3.2 | 11.3 | 0.00 | 0.00 | 0.00 | 78 | 1021.0 |
| 20260506203504 | 13 | 134 | 3.2 | 11.3 | 0.00 | 0.00 | 0.00 | 77 | 1021.0 |
| 20260506203025 | 13 | 144 | 1.6 | 8.0 | 0.00 | 0.00 | 0.00 | 78 | 1021.0 |
| 20260506202525 | 13 | 134 | 1.6 | 8.0 | 0.00 | 0.00 | 0.00 | 78 | 1020.9 |
| 20260506202004 | 13 | 138 | 1.6 | 8.0 | 0.00 | 0.00 | 0.00 | 78 | 1021.0 |
| 20260506201504 | 13 | 166 | 1.6 | 8.0 | 0.00 | 0.00 | 0.00 | 80 | 1020.8 |
| 20260506201004 | 13 | 147 | 1.6 | 11.3 | 0.00 | 0.00 | 0.00 | 80 | 1020.8 |
| 20260506200525 | 12 | 149 | 3.2 | 11.3 | 0.00 | 0.00 | 0.00 | 79 | 1020.8 |
| 20260506200004 | 12 | 171 | 1.6 | 11.3 | 0.00 | 0.00 | 0.00 | 80 | 1020.8 |
| 20260506195504 | 12 | 164 | 1.6 | 11.3 | 0.00 | 0.00 | 0.00 | 80 | 1020.8 |
| 20260506195004 | 12 | 166 | 3.2 | 11.3 | 0.00 | 0.00 | 0.00 | 80 | 1020.8 |
| 20260506194525 | 12 | 162 | 3.2 | 11.3 | 0.00 | 0.00 | 0.00 | 80 | 1020.9 |
| 20260506194025 | 12 | 160 | 3.2 | 11.3 | 0.00 | 0.00 | 0.00 | 81 | 1020.8 |
| 20260506193504 | 12 | 133 | 3.2 | 11.3 | 0.00 | 0.00 | 0.00 | 82 | 1020.7 |
| 20260506193004 | 12 | 131 | 3.2 | 11.3 | 0.00 | 0.00 | 0.00 | 81 | 1020.7 |
| 20260506192504 | 12 | 158 | 3.2 | 11.3 | 0.00 | 0.00 | 0.00 | 82 | 1020.7 |
| 20260506192025 | 12 | 151 | 3.2 | 12.9 | 0.00 | 0.00 | 0.00 | 82 | 1020.6 |
| 20260506191504 | 12 | 147 | 3.2 | 12.9 | 0.00 | 0.00 | 0.00 | 83 | 1020.7 |
| 20260506191004 | 12 | 158 | 3.2 | 12.9 | 0.00 | 0.00 | 0.00 | 83 | 1020.7 |
| 20260506190525 | 12 | 162 | 1.6 | 12.9 | 0.00 | 0.00 | 0.00 | 82 | 1020.6 |
| 20260506190005 | 12 | 159 | 1.6 | 9.7 | 0.00 | 0.00 | 0.00 | 83 | 1020.6 |
| 20260506185504 | 12 | 149 | 1.6 | 9.7 | 0.00 | 0.00 | 0.00 | 83 | 1020.5 |
| 20260506185004 | 12 | 146 | 1.6 | 9.7 | 0.00 | 0.00 | 0.00 | 83 | 1020.4 |
| 20260506184525 | 12 | 153 | 3.2 | 9.7 | 0.00 | 0.00 | 0.00 | 83 | 1020.5 |
| 20260506184004 | 12 | 183 | 3.2 | 12.9 | 0.00 | 0.00 | 0.00 | 83 | 1020.5 |
| 20260506183504 | 12 | 178 | 3.2 | 12.9 | 0.00 | 0.00 | 0.00 | 83 | 1020.5 |
| 20260506183005 | 12 | 147 | 3.2 | 12.9 | 0.00 | 0.00 | 0.00 | 83 | 1020.6 |
| 20260506182504 | 12 | 166 | 4.8 | 12.9 | 0.00 | 0.00 | 0.00 | 83 | 1020.5 |
| 20260506182004 | 12 | 165 | 3.2 | 12.9 | 0.00 | 0.00 | 0.00 | 82 | 1020.4 |
| 20260506181525 | 12 | 151 | 3.2 | 9.7 | 0.00 | 0.00 | 0.00 | 82 | 1020.4 |
| 20260506181025 | 12 | 176 | 1.6 | 11.3 | 0.00 | 0.00 | 0.00 | 83 | 1020.4 |
| 20260506180504 | 12 | 159 | 1.6 | 11.3 | 0.00 | 0.00 | 0.00 | 84 | 1020.3 |
| 20260506180005 | 12 | 132 | 3.2 | 11.3 | 0.00 | 0.00 | 0.00 | 84 | 1020.4 |
| 20260506175504 | 12 | 143 | 3.2 | 11.3 | 0.00 | 0.00 | 0.00 | 84 | 1020.4 |
| 20260506175004 | 12 | 141 | 3.2 | 11.3 | 0.00 | 0.00 | 0.00 | 85 | 1020.4 |
| 20260506174504 | 12 | 131 | 3.2 | 11.3 | 0.00 | 0.00 | 0.00 | 86 | 1020.5 |
| 20260506174004 | 12 | 153 | 3.2 | 11.3 | 0.00 | 0.00 | 0.00 | 86 | 1020.4 |
| 20260506173504 | 12 | 191 | 3.2 | 11.3 | 0.00 | 0.00 | 0.00 | 86 | 1020.3 |
| 20260506173004 | 12 | 200 | 3.2 | 11.3 | 0.00 | 0.00 | 0.00 | 86 | 1020.1 |
| 20260506172504 | 12 | 168 | 1.6 | 8.0 | 0.00 | 0.00 | 0.00 | 86 | 1019.9 |
| 20260506172025 | 12 | 182 | 1.6 | 6.4 | 0.00 | 0.00 | 0.00 | 86 | 1019.9 |
| 20260506171504 | 12 | 200 | 1.6 | 6.4 | 0.00 | 0.00 | 0.00 | 86 | 1020.1 |
| 20260506171004 | 12 | 196 | 0.0 | 8.0 | 0.00 | 0.00 | 0.00 | 86 | 1020.0 |
| 20260506170525 | 12 | 194 | 1.6 | 9.7 | 0.00 | 0.00 | 0.00 | 86 | 1020.1 |
| 20260506170025 | 12 | 176 | 1.6 | 9.7 | 0.00 | 0.00 | 0.00 | 86 | 1020.2 |
| 20260506165525 | 12 | 160 | 1.6 | 9.7 | 0.00 | 0.00 | 0.00 | 86 | 1020.3 |
| 20260506165025 | 12 | 167 | 1.6 | 9.7 | 0.00 | 0.00 | 0.00 | 85 | 1020.2 |
| 20260506164504 | 12 | 203 | 1.6 | 9.7 | 0.00 | 0.00 | 0.00 | 86 | 1020.1 |
| 20260506164004 | 12 | 211 | 1.6 | 9.7 | 0.00 | 0.00 | 0.00 | 85 | 1020.1 |
| 20260506163504 | 12 | 244 | 1.6 | 9.7 | 0.00 | 0.00 | 0.00 | 86 | 1020.1 |
| 20260506163004 | 12 | 242 | 1.6 | 8.0 | 0.00 | 0.00 | 0.00 | 86 | 1020.2 |
| 20260506162504 | 12 | 162 | 1.6 | 8.0 | 0.00 | 0.00 | 0.00 | 87 | 1020.3 |
| 20260506162004 | 12 | 165 | 1.6 | 8.0 | 0.00 | 0.00 | 0.00 | 87 | 1020.1 |
| 20260506161504 | 12 | 178 | 1.6 | 12.9 | 0.00 | 0.00 | 0.00 | 87 | 1020.2 |
| 20260506161025 | 11 | 194 | 1.6 | 12.9 | 0.00 | 0.00 | 0.00 | 88 | 1020.1 |
| 20260506160504 | 11 | 237 | 1.6 | 12.9 | 0.00 | 0.00 | 0.00 | 88 | 1020.0 |
| 20260506160004 | 11 | 216 | 3.2 | 12.9 | 0.00 | 0.00 | 0.00 | 88 | 1019.9 |
| 20260506155504 | 11 | 192 | 3.2 | 12.9 | 0.00 | 0.00 | 0.00 | 88 | 1019.9 |
| 20260506155004 | 11 | 165 | 3.2 | 12.9 | 0.00 | 0.00 | 0.00 | 89 | 1019.7 |
| 20260506154504 | 11 | 152 | 3.2 | 12.9 | 0.00 | 0.00 | 0.00 | 89 | 1019.5 |
| 20260506154004 | 11 | 156 | 3.2 | 11.3 | 0.00 | 0.00 | 0.00 | 89 | 1019.4 |
| 20260506153504 | 11 | 171 | 3.2 | 11.3 | 0.00 | 0.00 | 0.00 | 90 | 1019.5 |
| 20260506153004 | 11 | 175 | 3.2 | 9.7 | 0.00 | 0.00 | 0.00 | 90 | 1019.5 |
| 20260506152504 | 11 | 151 | 3.2 | 9.7 | 0.00 | 0.00 | 0.00 | 90 | 1019.6 |
| 20260506152025 | 11 | 146 | 3.2 | 9.7 | 0.00 | 0.00 | 0.00 | 90 | 1019.5 |
| 20260506151525 | 11 | 163 | 1.6 | 9.7 | 0.00 | 0.00 | 0.00 | 91 | 1019.6 |
| 20260506151004 | 11 | 184 | 0.0 | 9.7 | 0.00 | 0.00 | 0.00 | 91 | 1019.6 |
| 20260506150504 | 11 | 169 | 1.6 | 11.3 | 0.00 | 0.00 | 0.00 | 91 | 1019.7 |
| 20260506150025 | 11 | 163 | 1.6 | 11.3 | 0.00 | 0.00 | 0.00 | 91 | 1019.6 |
| 20260506145504 | 11 | 173 | 3.2 | 11.3 | 0.00 | 0.00 | 0.00 | 91 | 1019.8 |
| 20260506145003 | 11 | 192 | 1.6 | 11.3 | 0.00 | 0.00 | 0.00 | 91 | 1019.9 |
| 20260506144504 | 11 | 184 | 1.6 | 11.3 | 0.00 | 0.00 | 0.00 | 91 | 1019.9 |
| 20260506144004 | 11 | 182 | 1.6 | 11.3 | 0.00 | 0.00 | 0.00 | 91 | 1019.8 |
| 20260506143504 | 11 | 164 | 1.6 | 11.3 | 0.00 | 0.00 | 0.00 | 91 | 1019.6 |
| 20260506143004 | 11 | 139 | 1.6 | 6.4 | 0.00 | 0.00 | 0.00 | 91 | 1019.3 |
| 20260506142504 | 11 | 135 | 1.6 | 8.0 | 0.00 | 0.00 | 0.00 | 91 | 1019.3 |
| 20260506142004 | 11 | 147 | 3.2 | 8.0 | 0.00 | 0.00 | 0.00 | 91 | 1019.5 |
| 20260506141504 | 11 | 161 | 3.2 | 8.0 | 0.00 | 0.00 | 0.00 | 91 | 1019.6 |
| 20260506141025 | 11 | 162 | 1.6 | 8.0 | 0.00 | 0.00 | 0.00 | 91 | 1019.6 |
| 20260506140504 | 11 | 155 | 1.6 | 8.0 | 0.00 | 0.00 | 0.00 | 90 | 1019.6 |
| 20260506140004 | 11 | 142 | 1.6 | 8.0 | 0.00 | 0.00 | 0.00 | 90 | 1019.6 |
| 20260506135503 | 11 | 135 | 1.6 | 8.0 | 0.00 | 0.00 | 0.00 | 90 | 1019.5 |
| 20260506135003 | 11 | 141 | 1.6 | 8.0 | 0.00 | 0.00 | 0.00 | 90 | 1019.3 |
| 20260506134504 | 11 | 145 | 1.6 | 8.0 | 0.00 | 0.00 | 0.00 | 90 | 1019.2 |
| 20260506134003 | 11 | 150 | 0.0 | 6.4 | 0.00 | 0.00 | 0.00 | 90 | 1019.3 |
| 20260506133504 | 11 | 157 | 1.6 | 6.4 | 0.00 | 0.00 | 0.00 | 90 | 1019.4 |
| 20260506133004 | 11 | 175 | 1.6 | 6.4 | 0.00 | 0.00 | 0.00 | 90 | 1019.3 |
| 20260506132503 | 11 | 217 | 0.0 | 6.4 | 0.00 | 0.00 | 0.00 | 90 | 1019.3 |
| 20260506132003 | 11 | 205 | 1.6 | 6.4 | 0.00 | 0.00 | 0.00 | 90 | 1019.6 |
| 20260506131504 | 11 | 181 | 1.6 | 6.4 | 0.00 | 0.00 | 0.00 | 89 | 1019.4 |
| 20260506131003 | 11 | 195 | 1.6 | 6.4 | 0.00 | 0.00 | 0.00 | 89 | 1019.3 |
| 20260506130504 | 11 | 227 | 1.6 | 4.8 | 0.00 | 0.00 | 0.00 | 89 | 1019.3 |
| 20260506130004 | 11 | 227 | 1.6 | 8.0 | 0.00 | 0.00 | 0.00 | 89 | 1019.2 |
| 20260506125503 | 11 | 227 | 0.0 | 11.3 | 0.00 | 0.00 | 0.00 | 89 | 1019.3 |
| 20260506125025 | 11 | 217 | 1.6 | 11.3 | 0.00 | 0.00 | 0.00 | 89 | 1019.2 |
| 20260506124504 | 11 | 189 | 1.6 | 11.3 | 0.00 | 0.00 | 0.00 | 90 | 1019.0 |
| 20260506124024 | 11 | 170 | 3.2 | 11.3 | 0.00 | 0.00 | 0.00 | 90 | 1018.9 |
| 20260506123503 | 11 | 156 | 1.6 | 11.3 | 0.00 | 0.00 | 0.00 | 90 | 1019.0 |
| 20260506123003 | 11 | 143 | 1.6 | 11.3 | 0.00 | 0.00 | 0.00 | 90 | 1018.7 |
| 20260506122525 | 11 | 147 | 1.6 | 9.7 | 0.00 | 0.00 | 0.00 | 90 | 1018.6 |
| 20260506122003 | 11 | 141 | 1.6 | 9.7 | 0.00 | 0.00 | 0.00 | 90 | 1018.8 |
| 20260506121525 | 11 | 145 | 1.6 | 9.7 | 0.00 | 0.00 | 0.00 | 91 | 1018.8 |
| 20260506121003 | 11 | 159 | 1.6 | 9.7 | 0.00 | 0.00 | 0.00 | 91 | 1018.8 |
| 20260506120503 | 11 | 157 | 1.6 | 3.2 | 0.00 | 0.00 | 0.00 | 91 | 1018.8 |
| 20260506120004 | 11 | 157 | 0.0 | 3.2 | 0.00 | 0.00 | 0.00 | 91 | 1018.7 |
| 20260506115503 | 11 | 157 | 0.0 | 3.2 | 0.00 | 0.00 | 0.00 | 91 | 1018.8 |
| 20260506115004 | 11 | 157 | 0.0 | 9.7 | 0.00 | 0.00 | 0.00 | 92 | 1018.7 |
| 20260506114504 | 11 | 157 | 0.0 | 9.7 | 0.00 | 0.00 | 0.00 | 92 | 1018.7 |
| 20260506114004 | 11 | 151 | 0.0 | 9.7 | 0.00 | 0.00 | 0.00 | 92 | 1018.7 |
| 20260506113503 | 11 | 149 | 1.6 | 9.7 | 0.00 | 0.00 | 0.00 | 92 | 1018.6 |
| 20260506113003 | 10 | 161 | 0.0 | 6.4 | 0.00 | 0.00 | 0.00 | 92 | 1018.5 |
| 20260506112503 | 10 | 160 | 0.0 | 6.4 | 0.00 | 0.00 | 0.00 | 92 | 1018.5 |
| 20260506112024 | 10 | 152 | 1.6 | 6.4 | 0.00 | 0.00 | 0.00 | 92 | 1018.6 |
| 20260506111503 | 10 | 154 | 1.6 | 6.4 | 0.00 | 0.00 | 0.00 | 92 | 1018.5 |
| 20260506111003 | 10 | 141 | 1.6 | 6.4 | 0.00 | 0.00 | 0.00 | 92 | 1018.4 |
| 20260506110503 | 10 | 129 | 1.6 | 6.4 | 0.00 | 0.00 | 0.00 | 92 | 1018.4 |
| 20260506110003 | 10 | 122 | 1.6 | 4.8 | 0.00 | 0.00 | 0.00 | 92 | 1018.3 |
| 20260506105504 | 10 | 112 | 1.6 | 4.8 | 0.00 | 0.00 | 0.00 | 92 | 1018.2 |
| 20260506105003 | 10 | 101 | 1.6 | 3.2 | 0.00 | 0.00 | 0.00 | 92 | 1018.1 |
| 20260506104504 | 10 | 101 | 0.0 | 3.2 | 0.00 | 0.00 | 0.00 | 92 | 1018.0 |
| 20260506104024 | 10 | 101 | 0.0 | 3.2 | 0.00 | 0.00 | 0.00 | 92 | 1018.0 |
| 20260506103524 | 10 | 101 | 0.0 | 1.6 | 0.00 | 0.00 | 0.00 | 92 | 1018.0 |
| 20260506103003 | 10 | 101 | 0.0 | 1.6 | 0.00 | 0.00 | 0.00 | 92 | 1018.0 |
| 20260506102503 | 10 | 101 | 0.0 | 1.6 | 0.00 | 0.00 | 0.00 | 92 | 1017.9 |
| 20260506102024 | 10 | 101 | 0.0 | 1.6 | 0.00 | 0.00 | 0.00 | 92 | 1017.9 |
| 20260506101503 | 10 | 101 | 0.0 | 1.6 | 0.00 | 0.00 | 0.00 | 92 | 1018.0 |
| 20260506101004 | 10 | 101 | 0.0 | 1.6 | 0.00 | 0.00 | 0.00 | 92 | 1017.9 |
| 20260506100503 | 10 | 101 | 0.0 | 1.6 | 0.00 | 0.00 | 0.00 | 92 | 1018.0 |
| 20260506100004 | 10 | 0 | 0.0 | 0.0 | 0.00 | 0.00 | 0.00 | 92 | 1017.9 |
| 20260506095524 | 10 | 0 | 0.0 | 0.0 | 0.00 | 0.00 | 0.00 | 92 | 1017.9 |
| 20260506095003 | 10 | 0 | 0.0 | 0.0 | 0.00 | 0.00 | 0.00 | 92 | 1017.9 |
| 20260506094503 | 10 | 0 | 0.0 | 1.6 | 0.00 | 0.00 | 0.00 | 92 | 1017.7 |
| 20260506094003 | 9 | 0 | 0.0 | 1.6 | 0.00 | 0.00 | 0.00 | 91 | 1017.7 |
| 20260506093503 | 10 | 0 | 0.0 | 1.6 | 0.00 | 0.00 | 0.00 | 91 | 1017.6 |
| 20260506093003 | 10 | 101 | 0.0 | 1.6 | 0.00 | 0.00 | 0.00 | 91 | 1017.6 |
| 20260506092503 | 10 | 101 | 0.0 | 1.6 | 0.00 | 0.00 | 0.00 | 91 | 1017.6 |
| 20260506092003 | 10 | 0 | 0.0 | 1.6 | 0.00 | 0.00 | 0.00 | 91 | 1017.6 |
| 20260506091503 | 10 | 101 | 0.0 | 1.6 | 0.00 | 0.00 | 0.00 | 91 | 1017.5 |
| 20260506091024 | 10 | 101 | 0.0 | 1.6 | 0.00 | 0.00 | 0.00 | 91 | 1017.5 |
| 20260506090524 | 10 | 0 | 0.0 | 1.6 | 0.00 | 0.00 | 0.00 | 91 | 1017.6 |
| 20260506090024 | 10 | 0 | 0.0 | 1.6 | 0.00 | 0.00 | 0.00 | 91 | 1017.6 |
| 20260506085505 | 10 | 101 | 0.0 | 1.6 | 0.00 | 0.00 | 0.00 | 91 | 1017.5 |
| 20260506085005 | 10 | 101 | 0.0 | 1.6 | 0.00 | 0.00 | 0.00 | 91 | 1017.5 |
| 20260506084505 | 10 | 101 | 0.0 | 1.6 | 0.00 | 0.00 | 0.00 | 91 | 1017.5 |
| 20260506084005 | 10 | 101 | 0.0 | 1.6 | 0.00 | 0.00 | 0.00 | 91 | 1017.4 |
| 20260506083505 | 10 | 101 | 0.0 | 1.6 | 0.00 | 0.00 | 0.00 | 91 | 1017.4 |
| 20260506083005 | 10 | 101 | 0.0 | 1.6 | 0.00 | 0.00 | 0.00 | 91 | 1017.3 |
| 20260506082505 | 10 | 101 | 0.0 | 1.6 | 0.00 | 0.00 | 0.00 | 90 | 1017.3 |
| 20260506082026 | 10 | 101 | 0.0 | 3.2 | 0.00 | 0.00 | 0.00 | 91 | 1017.3 |
| 20260506081505 | 10 | 0 | 0.0 | 3.2 | 0.00 | 0.00 | 0.00 | 91 | 1017.1 |
| 20260506081026 | 10 | 101 | 0.0 | 3.2 | 0.00 | 0.00 | 0.00 | 90 | 1017.0 |
| 20260506080505 | 10 | 101 | 0.0 | 3.2 | 0.00 | 0.00 | 0.00 | 90 | 1017.0 |
| 20260506073505 | 10 | 101 | 0.0 | 3.2 | 0.00 | 0.00 | 0.00 | 90 | 1016.9 |
| 20260506073005 | 10 | 101 | 1.6 | 3.2 | 0.00 | 0.00 | 0.00 | 90 | 1016.9 |
| 20260506072505 | 10 | 101 | 1.6 | 3.2 | 0.00 | 0.00 | 0.00 | 90 | 1017.0 |
| 20260506072005 | 10 | 101 | 0.0 | 3.2 | 0.00 | 0.00 | 0.00 | 90 | 1016.9 |
| 20260506071505 | 10 | 101 | 0.0 | 3.2 | 0.00 | 0.00 | 0.00 | 90 | 1016.9 |
| 20260506071026 | 10 | 101 | 0.0 | 4.8 | 0.00 | 0.00 | 0.00 | 90 | 1016.9 |
| 20260506070505 | 10 | 101 | 0.0 | 4.8 | 0.00 | 0.00 | 0.00 | 89 | 1016.8 |
| 20260506062505 | 11 | 105 | 1.6 | 4.8 | 0.00 | 0.00 | 0.00 | 89 | 1016.6 |
| 20260506062005 | 11 | 104 | 1.6 | 4.8 | 0.00 | 0.00 | 0.00 | 88 | 1016.6 |
| 20260506061505 | 11 | 87 | 1.6 | 6.4 | 0.00 | 0.00 | 0.00 | 88 | 1016.6 |
| 20260506061005 | 11 | 68 | 1.6 | 6.4 | 0.00 | 0.00 | 0.00 | 88 | 1016.6 |
| 20260506060505 | 11 | 48 | 1.6 | 8.0 | 0.00 | 0.00 | 0.00 | 88 | 1016.6 |
| 20260506051005 | 12 | 184 | 0.0 | 3.2 | 0.00 | 0.00 | 0.00 | 86 | 1016.0 |
| 20260506050505 | 12 | 184 | 0.0 | 3.2 | 0.00 | 0.00 | 0.00 | 85 | 1015.9 |
| 20260506045005 | 12 | 184 | 0.0 | 3.2 | 0.00 | 0.00 | 0.00 | 85 | 1015.7 |
| 20260506044526 | 12 | 184 | 0.0 | 3.2 | 0.00 | 0.00 | 0.00 | 84 | 1015.7 |
| 20260506044005 | 13 | 184 | 0.0 | 1.6 | 0.00 | 0.00 | 0.00 | 84 | 1015.7 |
| 20260506043526 | 13 | 0 | 0.0 | 0.0 | 0.00 | 0.00 | 0.00 | 84 | 1015.7 |
| 20260506043005 | 13 | 0 | 0.0 | 0.0 | 0.00 | 0.00 | 0.00 | 84 | 1015.5 |
| 20260506042505 | 13 | 0 | 0.0 | 0.0 | 0.00 | 0.00 | 0.00 | 83 | 1015.6 |
| 20260506042005 | 13 | 0 | 0.0 | 0.0 | 0.00 | 0.00 | 0.00 | 83 | 1015.6 |
| 20260506041505 | 13 | 0 | 0.0 | 0.0 | 0.00 | 0.00 | 0.00 | 82 | 1015.6 |
| 20260506041026 | 13 | 0 | 0.0 | 0.0 | 0.00 | 0.00 | 0.00 | 82 | 1015.5 |
| 20260506040505 | 13 | 0 | 0.0 | 0.0 | 0.00 | 0.00 | 0.00 | 81 | 1015.5 |
| 20260506040005 | 14 | 0 | 0.0 | 0.0 | 0.00 | 0.00 | 0.00 | 81 | 1015.6 |
| 20260506035505 | 14 | 0 | 0.0 | 3.2 | 0.00 | 0.00 | 0.00 | 80 | 1015.5 |
| 20260506035026 | 14 | 0 | 0.0 | 3.2 | 0.00 | 0.00 | 0.00 | 80 | 1015.5 |
| 20260506034505 | 15 | 184 | 0.0 | 3.2 | 0.00 | 0.00 | 0.00 | 79 | 1015.5 |
| 20260506034026 | 15 | 184 | 0.0 | 3.2 | 0.00 | 0.00 | 0.00 | 79 | 1015.4 |
| 20260506033505 | 15 | 184 | 0.0 | 3.2 | 0.00 | 0.00 | 0.00 | 78 | 1015.4 |
| 20260506033005 | 15 | 184 | 1.6 | 3.2 | 0.00 | 0.00 | 0.00 | 77 | 1015.3 |
| 20260506032505 | 15 | 184 | 1.6 | 3.2 | 0.00 | 0.00 | 0.00 | 76 | 1015.3 |
| 20260506032004 | 16 | 184 | 0.0 | 3.2 | 0.00 | 0.00 | 0.00 | 76 | 1015.4 |
| 20260506031504 | 16 | 184 | 0.0 | 6.4 | 0.00 | 0.00 | 0.00 | 76 | 1015.3 |
| 20260506031005 | 16 | 184 | 0.0 | 6.4 | 0.00 | 0.00 | 0.00 | 75 | 1015.2 |
| 20260506030526 | 16 | 185 | 0.0 | 6.4 | 0.00 | 0.00 | 0.00 | 75 | 1015.2 |
| 20260506030005 | 16 | 135 | 1.6 | 6.4 | 0.00 | 0.00 | 0.00 | 74 | 1015.2 |
| 20260506025505 | 16 | 116 | 3.2 | 6.4 | 0.00 | 0.00 | 0.00 | 74 | 1015.2 |
| 20260506025005 | 16 | 112 | 1.6 | 6.4 | 0.00 | 0.00 | 0.00 | 74 | 1015.2 |
| 20260506024504 | 16 | 107 | 1.6 | 4.8 | 0.00 | 0.00 | 0.00 | 74 | 1015.1 |
| 20260506024005 | 16 | 107 | 1.6 | 4.8 | 0.00 | 0.00 | 0.00 | 74 | 1015.0 |
| 20260506023505 | 17 | 107 | 1.6 | 6.4 | 0.00 | 0.00 | 0.00 | 73 | 1015.1 |
| 20260506023004 | 17 | 116 | 1.6 | 6.4 | 0.00 | 0.00 | 0.00 | 73 | 1015.0 |
| 20260506022507 | 17 | 132 | 1.6 | 8.0 | 0.00 | 0.00 | 0.00 | 72 | 1015.1 |
| 20260506022005 | 17 | 129 | 3.2 | 8.0 | 0.00 | 0.00 | 0.00 | 72 | 1015.1 |
| 20260506021525 | 17 | 132 | 3.2 | 9.7 | 0.00 | 0.00 | 0.00 | 72 | 1015.0 |
| 20260506021005 | 17 | 136 | 3.2 | 9.7 | 0.00 | 0.00 | 0.00 | 72 | 1015.0 |
| 20260506020505 | 17 | 140 | 3.2 | 9.7 | 0.00 | 0.00 | 0.00 | 71 | 1015.0 |
| 20260506020004 | 17 | 136 | 3.2 | 9.7 | 0.00 | 0.00 | 0.00 | 71 | 1015.0 |
| 20260506015505 | 17 | 141 | 1.6 | 14.5 | 0.00 | 0.00 | 0.00 | 71 | 1015.0 |
| 20260506015005 | 17 | 160 | 3.2 | 14.5 | 0.00 | 0.00 | 0.00 | 71 | 1014.9 |
| 20260506014504 | 17 | 146 | 3.2 | 14.5 | 0.00 | 0.00 | 0.00 | 71 | 1015.0 |
| 20260506014004 | 17 | 141 | 3.2 | 14.5 | 0.00 | 0.00 | 0.00 | 71 | 1015.0 |
| 20260506013505 | 17 | 142 | 4.8 | 14.5 | 0.00 | 0.00 | 0.00 | 70 | 1015.0 |
| 20260506013005 | 17 | 134 | 3.2 | 11.3 | 0.00 | 0.00 | 0.00 | 70 | 1015.0 |
| 20260506012525 | 17 | 129 | 3.2 | 16.1 | 0.00 | 0.00 | 0.00 | 69 | 1015.0 |
| 20260506012005 | 17 | 129 | 3.2 | 16.1 | 0.00 | 0.00 | 0.00 | 69 | 1015.0 |
| 20260506011504 | 18 | 148 | 3.2 | 16.1 | 0.00 | 0.00 | 0.00 | 69 | 1015.0 |
| 20260506011004 | 18 | 169 | 3.2 | 16.1 | 0.00 | 0.00 | 0.00 | 69 | 1015.1 |
| 20260506010526 | 18 | 154 | 3.2 | 16.1 | 0.00 | 0.00 | 0.00 | 68 | 1015.0 |
| 20260506010005 | 18 | 125 | 3.2 | 14.5 | 0.00 | 0.00 | 0.00 | 69 | 1014.9 |
| 20260506005505 | 18 | 132 | 4.8 | 14.5 | 0.00 | 0.00 | 0.00 | 69 | 1014.9 |
| 20260506005004 | 18 | 131 | 4.8 | 14.5 | 0.00 | 0.00 | 0.00 | 68 | 1014.9 |
| 20260506004505 | 18 | 124 | 4.8 | 14.5 | 0.00 | 0.00 | 0.00 | 67 | 1015.0 |
| 20260506004005 | 18 | 128 | 3.2 | 14.5 | 0.00 | 0.00 | 0.00 | 67 | 1015.1 |
| 20260506003504 | 18 | 132 | 4.8 | 14.5 | 0.00 | 0.00 | 0.00 | 67 | 1015.1 |
| 20260506003004 | 18 | 126 | 6.4 | 14.5 | 0.00 | 0.00 | 0.00 | 67 | 1015.0 |
| 20260506002506 | 18 | 123 | 4.8 | 14.5 | 0.00 | 0.00 | 0.00 | 67 | 1014.9 |
| 20260506002004 | 18 | 125 | 4.8 | 12.9 | 0.00 | 0.00 | 0.00 | 66 | 1015.1 |
| 20260506001504 | 18 | 118 | 3.2 | 12.9 | 0.00 | 0.00 | 0.00 | 66 | 1015.1 |
| 20260506001004 | 18 | 116 | 3.2 | 12.9 | 0.00 | 0.00 | 0.00 | 66 | 1015.1 |
| 20260506000504 | 18 | 119 | 4.8 | 12.9 | 0.00 | 0.00 | 0.00 | 66 | 1015.1 |
| 20260506000026 | 18 | 120 | 4.8 | 12.9 | 0.00 | 0.00 | 0.00 | 66 | 1015.1 |
| 20260505235504 | 19 | 126 | 3.2 | 12.9 | 0.00 | 0.00 | 0.00 | 65 | 1015.2 |
| 20260505235004 | 19 | 125 | 3.2 | 11.3 | 0.00 | 0.00 | 0.00 | 65 | 1015.2 |
| 20260505234526 | 19 | 121 | 3.2 | 11.3 | 0.00 | 0.00 | 0.00 | 64 | 1015.5 |
| 20260505234004 | 19 | 125 | 3.2 | 11.3 | 0.00 | 0.00 | 0.00 | 65 | 1015.4 |
| 20260505233525 | 19 | 131 | 3.2 | 11.3 | 0.00 | 0.00 | 0.00 | 65 | 1015.3 |
| 20260505233004 | 20 | 129 | 3.2 | 9.7 | 0.00 | 0.00 | 0.00 | 62 | 1015.4 |
| 20260505232504 | 20 | 125 | 1.6 | 9.7 | 0.00 | 0.00 | 0.00 | 63 | 1015.5 |
| 20260505232004 | 20 | 121 | 1.6 | 9.7 | 0.00 | 0.00 | 0.00 | 62 | 1015.6 |